User: anonymous   Login
Location: Unspecified
(0.0000°N, 0.0000°E)
Time: 14:39:55
(UTC+02:00)
Language:

GPS 2-05 Rocket1 - Orbit

View from above orbital plane
View from above orbital plane
View from above satellite
View from above satellite

Ground track
Ground track

The orbit data is extracted from the following two-line orbital elements,

1 20362U 89097B   16180.85966234  .00004740  00000-0  90287-4 0  9990
2 20362  35.6103   7.9821 0068353 305.3840 181.5772 15.45121146445002
Epoch (UTC): 28 June 2016 20:37:54
Eccentricity: 0.0068353
inclination: 35.6103°
perigee height: 384 km
apogee height: 477 km
right ascension of ascending node: 7.9821°
argument of perigee: 305.3840°
revolutions per day: 15.45121146
mean anomaly at epoch: 181.5772°
orbit number at epoch: 44500

The dashed part of the orbit path shows where the satellite is in the earth's shadow,  

DLR